Погода в Ярыгине

Россия / Курская область     51°12′37″N   36°43′24″E
темп.,
°C
ветер,
м/с
пор.,
м/с
влажн.,
%
обл.,
%
осадки,
мм/ч
давл.,
гПа
погр.,
м
25 февраля, чт
чт2500:00−9ююз41095100 0.4 1033288
03:00−7ююз4895100 0.6 1031250
06:00−7юз4895100 0.1 1029244
09:00−3зюз51096100 0.2 1028405
12:000зюз610100100 0.0 1026344
15:00+1зюз713100100 0.1 1023364
18:00+2з61399100 0.0 1022301
21:00+2з511100100 0.1 1022266
26 февраля, пт
пт2600:00+2з512100100 0.0 1022286
03:00+1з51099100 0.1 1022212
06:00+1з41099100 0.0 1021223
09:00+2з51099100 0.0 1020264
12:00+2зюз713100100 0.0 1018417
15:00+2з71498100 0.1 1017465
18:00+2з61398100 0.1 1015369
21:00+2з61398100 0.2 1015384
27 февраля, сб
сб2700:00+1з51296100 0.0 1013408
03:00+1з51196100 0.0 1012409
06:00+1з51196100 0.0 1010393
09:00+1зсз51095100 0.1 1009592
12:000зсз51198100 0.2 1009561
15:00+1зсз61098100 0.3 1009586
18:00+1зсз61197100 0.1 1008515
21:000сз61197100 0.4 1009594
28 февраля, вс
вс2800:000сз61194100 0.2 1010671
03:00−2с7128899 0.4 1013700
06:00−5с6108886 0.0 1015738
09:00−5с698593 0.1 1017769
12:00−4с6883100 0.1 1019771
15:00−4ссз6885100 0.1 1020749
18:00−4ссз5887100 0.1 1021745
21:00−4с4890100 0.1 1023725
1 марта, пн
пн100:00−4с3795100 0.1 1024496
03:00−5с259398 0.2 1026362
06:00−6ссз3594100 0.0 1027158
09:00−5ссв369098 0.1 1029692
12:00−4с4683100 0.1 1031731
15:00−3с3582100 0.1 1031663
18:00−4зсз228954 0.0 103129
21:00−5з349027 0.0 103272